This is the latest recevied weather packets stored in our database for station/object KQ4UPF. If no packets are shown the sender has not sent any weather packets the latest 10 day(s).
| Time | Temp. | Humidity | Pressure | Rain* | Wind** | Luminosity | Snow |
|---|---|---|---|---|---|---|---|
| 1778005779 | 25.56° C | 42% | 1014.5 hPa | 0 mm | - | 965 W/m² | - |
| 1778005476 | 25.56° C | 50% | 1014.4 hPa | 0 mm | - | 990 W/m² | - |
| 1778005172 | 25.56° C | 45% | 1014.4 hPa | 0 mm | - | 957 W/m² | - |
| 1778004870 | 25.56° C | 48% | 1014.4 hPa | 0 mm | - | 1043 W/m² | - |
| 1778004567 | 25.56° C | 42% | 1014.4 hPa | 0 mm | - | 1074 W/m² | - |
| 1778004263 | 25.56° C | 53% | 1014.4 hPa | 0 mm | - | 931 W/m² | - |
| 1778003960 | 25.56° C | 42% | 1014.7 hPa | 0 mm | - | 1044 W/m² | - |
| 1778003656 | 25.56° C | 44% | 1014.8 hPa | 0 mm | - | 735 W/m² | - |
| 1778003352 | 25.56° C | 45% | 1014.7 hPa | 0 mm | - | 940 W/m² | - |
| 1778003050 | 25° C | 45% | 1014.5 hPa | 0 mm | - | 1075 W/m² | - |
| 1778002746 | 25° C | 46% | 1014.7 hPa | 0 mm | - | 1006 W/m² | - |
| 1778002442 | 24.44° C | 45% | 1014.9 hPa | 0 mm | - | 824 W/m² | - |
| 1778002140 | 24.44° C | 46% | 1015.1 hPa | 0 mm | - | 766 W/m² | - |
| 1778001838 | 25° C | 43% | 1015.2 hPa | 0 mm | - | 862 W/m² | - |
| 1778001537 | 24.44° C | 44% | 1015.2 hPa | 0 mm | - | 1087 W/m² | - |
| 1778001234 | 24.44° C | 43% | 1015 hPa | 0 mm | - | 1067 W/m² | - |
| 1778000930 | 24.44° C | 46% | 1015.1 hPa | 0 mm | - | 575 W/m² | - |
| 1778000628 | 24.44° C | 44% | 1015.1 hPa | 0 mm | - | 883 W/m² | - |
| 1778000322 | 23.89° C | 43% | 1015.2 hPa | 0 mm | - | 878 W/m² | - |
| 1778000018 | 23.89° C | 46% | 1015.2 hPa | 0 mm | - | 785 W/m² | - |
| 1777999715 | 24.44° C | 46% | 1015.4 hPa | 0 mm | - | 728 W/m² | - |
| 1777999411 | 24.44° C | 42% | 1015.3 hPa | 0 mm | - | 724 W/m² | - |
| 1777999110 | 24.44° C | 42% | 1015.1 hPa | 0 mm | - | 845 W/m² | - |
| 1777998808 | 24.44° C | 47% | 1015.4 hPa | 0 mm | - | 909 W/m² | - |
| 1777998506 | 24.44° C | 48% | 1015.2 hPa | 0 mm | - | 932 W/m² | - |
* Rain latest hour (hover to see other rain measurements)
** Current wind speed in m/s (hover to see current wind gust speed)